Flag Weather past 2 weeks in Paris, France

Now
52 °F

More clouds than sun.


Feels Like: 51 °F
Forecast: 48 / 54 °F
Wind: 3 mph from South

Location: Villacoublay

Current Time: Nov 27, 2014 at 3:38:53 PM

Latest Report: Nov 27, 2014 at 3:00 PM


Visibility: N/A

Pressure: 29.59 "Hg

Humidity: 94%

Dew point: 50 °F

Location of ParisLocation

Historic Weather in Paris — Graph

°F

Paris temperature yesterday

Maximum temperature yesterday: 54 °F (at 1:00 PM)
Minimum temperature yesterday: 48 °F (at 12:00 AM)
Average temperature yesterday: 51 °F

Past Weeks' High & Low Weather Summary

 TemperatureHumidityPressure
High57 °F (Nov 12, 2:00 PM)100% (Nov 13, 5:00 AM)30.24 "Hg (Nov 13, 5:00 AM)
Low43 °F (Nov 19, 12:00 AM)63% (Nov 12, 3:30 PM)29.45 "Hg (Nov 16, 1:30 PM)
Average49 °F90%29.86 "Hg
* Reported Nov 12 2:00 PM — Nov 27 2:30 PM, Paris, Weather by CustomWeather, © 2014

Note: Actual official high and low records may vary slightly from our data, if they occured in-between our weather recording intervals... More about our weather records

Advertising

Paris weather history for previous 24 hours

 ConditionsComfort  
Time TempWeatherWind HumidityBarometerVisibility
2:30 PM
Nov 27
52 °FMostly cloudy.6 mph94%29.62 "HgN/A
2:00 PM52 °FMore clouds than sun.3 mph94%29.62 "HgN/A
1:30 PM52 °FLow clouds.6 mph94%29.62 "HgN/A
1:00 PM52 °FFog.6 mph94%29.65 "Hg4 mi
12:30 PM50 °FFog.5 mph100%29.65 "Hg0 mi
12:00 PM50 °FFog.3 mph100%29.65 "Hg0 mi
11:30 AM50 °FFog.2 mph100%29.68 "Hg0 mi
11:00 AM50 °FFog.2 mph100%29.68 "Hg0 mi
10:30 AM48 °FFog.1 mph100%29.68 "Hg0 mi
10:00 AM48 °FFog.3 mph100%29.68 "Hg0 mi
9:30 AM48 °FFog.3 mph100%29.68 "Hg0 mi
9:00 AM48 °FFog.2 mph94%29.68 "Hg0 mi
8:30 AM48 °FFog.No wind94%29.68 "Hg0 mi
8:00 AM48 °FFog.2 mph94%29.68 "Hg0 mi
7:30 AM48 °FFog.5 mph94%29.68 "Hg0 mi
7:00 AM46 °FFog.5 mph100%29.71 "Hg0 mi
6:30 AM46 °FFog.No wind100%29.71 "Hg1 mi
6:00 AM48 °FMostly cloudy.1 mph94%29.71 "Hg5 mi
5:30 AM48 °FPartly cloudy.3 mph100%29.71 "Hg4 mi
5:00 AM46 °FFog.2 mph100%29.74 "Hg0 mi
4:30 AM46 °FFog.2 mph100%29.74 "Hg0 mi
4:00 AM48 °FFog.3 mph94%29.74 "Hg0 mi
3:30 AM48 °FFog.3 mph94%29.77 "Hg0 mi
3:00 AM46 °FFog.5 mph100%29.77 "Hg0 mi
2:30 AM46 °FFog.3 mph100%29.77 "Hg0 mi
2:00 AM45 °FFog.2 mph93%29.77 "Hg0 mi
1:30 AM46 °FFog.2 mph100%29.77 "Hg0 mi
1:00 AM48 °FFog.3 mph94%29.80 "Hg0 mi
12:30 AM46 °FFog.1 mph93%29.80 "Hg1 mi
12:00 AM48 °FFog.2 mph94%29.80 "Hg0 mi
11:30 PM
Nov 26
48 °FFog.2 mph94%29.80 "Hg0 mi
11:00 PM50 °FLight fog.2 mph94%29.80 "Hg1 mi
10:30 PM50 °FLight fog.2 mph94%29.80 "Hg2 mi
10:00 PM50 °FClear.3 mph94%29.83 "Hg6 mi
9:30 PM50 °FClear.3 mph94%29.83 "Hg5 mi
9:00 PM52 °FPassing clouds.2 mph94%29.83 "Hg5 mi
8:30 PM52 °FOvercast.1 mph94%29.83 "HgN/A
8:00 PM52 °FOvercast.2 mph94%29.83 "HgN/A
7:30 PM52 °FLow clouds.3 mph94%29.83 "HgN/A
7:00 PM52 °FLow clouds.3 mph100%29.83 "HgN/A
6:30 PM54 °FLow clouds.3 mph94%29.83 "HgN/A
6:00 PM54 °FMostly cloudy.5 mph94%29.83 "HgN/A
5:30 PM54 °FMostly cloudy.7 mph94%29.83 "Hg6 mi
5:00 PM54 °FDrizzle. Fog.6 mph100%29.83 "Hg2 mi
4:30 PM54 °FLight rain. Fog.5 mph100%29.83 "Hg2 mi
4:00 PM54 °FLow clouds.6 mph100%29.83 "Hg4 mi
3:30 PM54 °FFog.6 mph100%29.83 "Hg1 mi
3:00 PM54 °FFog.6 mph94%29.83 "Hg2 mi
Weather by CustomWeather, © 2014

See weather overviewHow to use our weather pages